Home > Weather > Stavanger > Past weeks

Flag for Norway Past Weather in Stavanger, Norway — Yesterday and Last 2 Weeks

Now
59 °F

Clear.


Feels Like: 59 °F
Forecast: 59 / 67 °F
Wind: 1 mph from North

Location: Stavanger / Sola

Current Time: Jul 24, 2016 at 5:08:07 AM

Latest Report: Jul 24, 2016 at 3:50 AM


Visibility: 6 mi

Pressure: 30.12 "Hg

Humidity: 94%

Dew Point: 57 °F

Location of StavangerLocation

Past Weather in Stavanger — Graph

°F

Stavanger Temperature Yesterday

Maximum temperature yesterday: 70 °F (at 12:20 PM)
Minimum temperature yesterday: 54 °F (at 4:50 AM)
Average temperature yesterday: 64 °F

High & Low Weather Summary for the Past Weeks

 TemperatureHumidityPressure
High79 °F (Jul 20, 3:20 PM)100% (Jul 10, 2:50 PM)30.15 "Hg (Jul 10, 2:50 PM)
Low50 °F (Jul 17, 1:50 AM)53% (Jul 20, 11:50 PM)29.45 "Hg (Jul 11, 5:50 AM)
Average61 °F82%29.89 "Hg
* Reported Jul 9 3:50 AM — Jul 24 3:50 AM, Stavanger, Weather by CustomWeather, © 2016

Note: Actual official high and low records may vary slightly from our data, if they occured in-between our weather recording intervals... More about our weather records

Advertising

Stavanger Weather History for the Previous 24 Hours

Scroll right to see more
 ConditionsComfort  
Time TempWeatherWind HumidityBarometerVisibility
3:50 AM
Sun, Jul 24
59 °FClear.1 mph94%30.12 "Hg6 mi
2:50 AM59 °FClear.2 mph94%30.12 "Hg6 mi
1:50 AM59 °FClear.2 mph94%30.12 "Hg6 mi
1:20 AM61 °FClear.5 mph94%30.12 "Hg6 mi
12:50 AM61 °FClear.2 mph94%30.12 "HgN/A
12:20 AM61 °FRain. Fog.3 mph94%30.12 "HgN/A
11:50 PM
Sat, Jul 23
61 °FClear.2 mph94%30.12 "HgN/A
11:20 PM63 °FClear.2 mph88%30.12 "Hg10 mi
10:50 PM63 °FSunny.2 mph88%30.15 "Hg10 mi
10:20 PM63 °FSunny.1 mph88%30.12 "Hg10 mi
9:50 PM64 °FSunny.1 mph83%30.12 "Hg10 mi
9:20 PM64 °FSunny.5 mph83%30.12 "Hg10 mi
8:50 PM66 °FSunny.2 mph78%30.12 "Hg10 mi
8:20 PM66 °FSunny.3 mph83%30.12 "Hg10 mi
7:50 PM66 °FSunny.6 mph83%30.12 "Hg10 mi
7:20 PM66 °FPassing clouds.8 mph83%30.12 "HgN/A
6:50 PM68 °FSunny.5 mph69%30.12 "Hg10 mi
6:20 PM66 °FPassing clouds.7 mph78%30.12 "HgN/A
5:50 PM68 °FPassing clouds.5 mph78%30.12 "HgN/A
5:20 PM68 °FPassing clouds.7 mph73%30.12 "HgN/A
4:50 PM68 °FPassing clouds.7 mph73%30.12 "HgN/A
4:20 PM68 °FPassing clouds.8 mph69%30.15 "HgN/A
3:50 PM66 °FPassing clouds.8 mph68%30.15 "HgN/A
3:20 PM68 °FPassing clouds.9 mph64%30.15 "HgN/A
2:50 PM66 °FPassing clouds.8 mph73%30.15 "HgN/A
2:20 PM68 °FPassing clouds.7 mph69%30.15 "HgN/A
1:50 PM68 °FPassing clouds.9 mph69%30.15 "HgN/A
1:20 PM68 °FScattered clouds.10 mph69%30.15 "HgN/A
12:50 PM70 °FScattered clouds.7 mph69%30.12 "HgN/A
12:20 PM70 °FScattered clouds.1 mph69%30.12 "HgN/A
11:50 AM66 °FScattered clouds.7 mph78%30.15 "HgN/A
11:20 AM66 °FSunny.7 mph78%30.12 "Hg10 mi
10:50 AM66 °FSunny.7 mph78%30.12 "Hg10 mi
10:20 AM68 °FSunny.2 mph73%30.12 "Hg10 mi
9:50 AM66 °FSunny.No wind78%30.12 "Hg10 mi
9:20 AM64 °FSunny.2 mph83%30.12 "Hg10 mi
8:50 AM63 °FSunny.3 mph88%30.12 "Hg10 mi
8:20 AM61 °FSunny.2 mph94%30.12 "Hg10 mi
7:50 AM61 °FFog.3 mph88%30.12 "HgN/A
7:20 AM57 °FLight fog.1 mph94%30.12 "HgN/A
6:50 AM55 °FLight fog.1 mph100%30.12 "HgN/A
6:20 AM54 °FFog.2 mph100%30.12 "HgN/A
5:50 AM54 °FFog.1 mph94%30.12 "HgN/A
5:20 AM55 °FLight fog.1 mph94%30.12 "HgN/A
Weather by CustomWeather, © 2016

See weather overviewHow to use our weather pages